Regional Weather Roundup
Issued by NWS

Home | Current Version | Previous Version | Text Only | Print | Product List | Glossary On
Versions: 1 2 3 4 5 6 7 8 9 10 11 12 13 14 15 16 17 18 19 20 21 22 23 24 25 26 27 28 29 30 31 32 33 34 35 36 37 38 39 40 41 42 43 44 45 46 47 48 49 50
000
ASUS43 KBIS 060001
RWRND

NORTH DAKOTA REGIONAL WEATHER ROUNDUP
NATIONAL WEATHER SERVICE BISMARCK ND
700 PM CDT TUE MAY 05 2015

NOTE: "FAIR" INDICATES FEW OR NO CLOUDS BELOW 12,000 FEET WITH NO
SIGNIFICANT WEATHER AND/OR OBSTRUCTIONS TO VISIBILITY.


NDZ001>003-009>011-017-060100-
NORTHWEST NORTH DAKOTA

CITY           SKY/WX    TMP DP  RH WIND       PRES   REMARKS
WILLISTON      MOSUNNY   78  48  34 SE22      29.74S
6HR MIN TEMP:  75; 6HR MAX TEMP:  82;

MINOT          SUNNY     76  28  17 SE18G29   29.83F
$$

NDZ018>021-031>035-040>046-060100-
SOUTHWEST NORTH DAKOTA

CITY           SKY/WX    TMP DP  RH WIND       PRES   REMARKS
BISMARCK       SUNNY     77  43  29 S17       29.84F
6HR MIN TEMP:  71; 6HR MAX TEMP:  79;

DICKINSON      MOSUNNY   70  49  47 S24G31    29.80F
GARRISON         N/A     75  40  28 S17       29.83F
6HR MIN TEMP:  72; 6HR MAX TEMP:  77;

HETTINGER ARPT CLOUDY    64  49  57 SE24      29.84F
$$

NDZ004>008-012>016-024-026-027-054-060100-
NORTHEAST NORTH DAKOTA

CITY           SKY/WX    TMP DP  RH WIND       PRES   REMARKS
GRAND FORKS    MOSUNNY   77  25  14 SE20G26   29.94F
DEVILS LAKE    CLOUDY    73  28  19 S15G21    29.92S
$$

NDZ022-023-025-028>030-036>039-047>053-060100-
SOUTHEAST NORTH DAKOTA

CITY           SKY/WX    TMP DP  RH WIND       PRES   REMARKS
FARGO          MOSUNNY   76  48  37 SE22G30   29.96S
6HR MIN TEMP:  74; 6HR MAX TEMP:  81;

JAMESTOWN      SUNNY     75  40  28 S20G28    29.90F
$$




USA.gov is the U.S. government's official web portal to all federal, state and local government web resources and services.